Date,TemperatureHighF,TemperatureAvgF,TemperatureLowF,DewpointHighF,DewpointAvgF,DewpointLowF,HumidityHigh,HumidityAvg,HumidityLow,PressureMaxIn,PressureMinIn,WindSpeedMaxMPH,WindSpeedAvgMPH,GustSpeedMaxMPH,PrecipitationSumIn
2013-12-1,69.6,40.4,23.7,42.9,31.5,22.4,100,74,38,30.33,29.99,6,2,10,0.00
2013-12-2,64.2,46.1,28.0,48.1,38.3,27.8,100,77,49,30.00,29.81,5,1,9,0.00
2013-12-3,63.9,49.3,35.8,55.4,46.8,35.5,100,92,67,29.97,29.84,7,2,11,0.00
2013-12-4,62.4,54.2,47.3,61.5,53.9,47.0,100,99,93,30.06,29.94,4,1,8,0.07
2013-12-5,64.4,61.5,57.7,64.1,61.2,57.5,99,99,99,30.08,29.98,7,3,11,0.13
2013-12-6,80.1,69.7,63.7,72.0,68.1,63.1,100,95,75,30.01,29.91,14,8,31,0.18
2013-12-7,63.7,49.3,41.0,63.2,46.4,38.6,100,90,74,30.42,29.98,10,5,14,0.22
2013-12-8,41.0,33.4,30.4,39.1,32.7,30.1,100,97,89,30.42,30.24,10,3,15,0.07
2013-12-9,42.1,36.4,31.3,41.5,36.1,31.0,99,99,99,30.24,30.02,4,1,8,0.05
2013-12-10,55.4,40.0,25.5,52.4,37.3,23.7,100,91,58,30.27,29.90,12,3,20,0.27
2013-12-11,57.6,37.3,20.5,38.7,27.6,19.2,100,71,38,30.40,30.25,8,2,14,0.00
2013-12-12,53.8,36.1,25.5,29.2,21.1,12.2,89,57,30,30.39,30.24,9,3,15,0.00
2013-12-13,57.7,37.0,21.9,34.7,23.9,16.1,93,62,33,30.33,30.22,8,2,11,0.00
2013-12-14,38.3,36.1,35.1,36.5,33.6,27.8,100,91,67,30.25,29.76,10,3,16,0.67
2013-12-15,54.5,40.3,27.9,48.0,35.6,27.1,100,85,56,30.05,29.70,12,4,18,0.01
2013-12-16,67.6,41.3,26.6,45.0,34.3,26.4,99,79,42,30.12,30.03,7,2,12,0.00
2013-12-17,70.9,47.4,32.2,48.1,38.8,31.9,100,75,43,30.08,29.84,21,4,34,0.00
2013-12-18,57.7,39.9,25.7,33.5,22.7,17.1,82,52,29,30.24,30.02,13,3,24,0.00
2013-12-19,70.2,44.4,26.6,40.6,27.9,18.8,81,55,32,30.27,30.16,8,3,14,0.00
2013-12-20,68.0,51.6,38.7,52.9,42.7,30.6,100,73,53,30.20,30.08,10,3,14,0.00
2013-12-21,71.4,58.7,47.5,66.7,57.7,47.2,100,96,82,30.11,29.97,12,4,17,0.00
2013-12-22,71.1,64.5,59.4,70.6,64.2,59.1,99,99,96,30.07,29.94,12,6,20,1.11
2013-12-23,64.0,55.3,38.7,63.8,54.5,34.5,100,97,85,30.17,29.96,10,4,17,0.78
2013-12-24,52.2,36.3,23.2,39.9,27.7,15.2,100,73,44,30.42,30.14,13,4,20,0.01
2013-12-25,51.3,28.2,15.3,25.4,16.2,11.2,100,64,29,30.50,30.32,6,2,10,0.00
2013-12-26,62.2,35.1,19.4,38.1,24.3,14.2,97,67,40,30.33,30.21,6,2,9,0.00
2013-12-27,63.9,39.6,24.6,34.6,24.8,19.2,89,58,32,30.43,30.18,5,2,8,0.00
2013-12-28,60.6,41.0,25.5,42.9,31.9,21.4,99,73,39,30.37,30.12,6,2,9,0.09
2013-12-29,65.3,45.8,39.2,56.9,44.3,38.8,100,95,74,30.14,29.71,13,3,19,0.61
2013-12-30,52.9,42.3,34.5,47.5,39.5,34.3,100,90,73,30.11,29.91,5,2,7,0.00
2013-12-31,55.9,39.7,29.5,44.9,31.1,23.3,100,74,40,30.33,30.08,10,3,18,0.01